Regional Weather Roundup
Issued by NWS

Home | Current Version | Previous Version | Text Only | Print | Product List | Glossary Off
Versions: 1 2 3 4 5 6 7 8 9 10 11 12 13 14 15 16 17 18 19 20 21 22 23 24 25 26 27 28 29 30 31 32 33 34 35 36 37 38 39 40 41 42 43 44 45 46 47 48 49 50

000
ASUS43 KFSD 070810
RWRSD

WEATHER ROUNDUP FOR SOUTH DAKOTA
NATIONAL WEATHER SERVICE SIOUX FALLS SD
300 AM CDT TUE JUL 07 2015

NOTE: "FAIR" INDICATES FEW OR NO CLOUDS BELOW 12,000 FEET WITH NO
SIGNIFICANT WEATHER AND/OR OBSTRUCTIONS TO VISIBILITY.


SDZ001>005-009-010-012>017-070900-
NORTHWEST AND NORTH CENTRAL SOUTH DAKOTA

CITY           SKY/WX    TMP DP  RH WIND       PRES   REMARKS
BUFFALO          N/A     54  50  86 SE9       30.13F
FAITH            N/A     57  51  80 SE13      30.18F
MOBRIDGE       CLEAR     58  53  84 E6        30.17F
$$

SDZ012>016-024>037-041>051-057-063-072>074-070900-
SOUTHWEST AND SOUTH CENTRAL SOUTH DAKOTA

CITY           SKY/WX    TMP DP  RH WIND       PRES   REMARKS
RAPID CTY ARPT MOCLDY    59  56  89 CALM      30.19F
PIERRE         CLEAR     56  53  90 E6        30.16F FOG
CUSTER         CLOUDY    53  49  86 SW3       30.27F
ELLSWORTH AFB  MOCLDY    60  57  90 SE6       30.18F
PHILIP         MOCLDY    60  57  89 E7        30.17S
PINE RIDGE     CLOUDY    62  55  77 S3        30.21F
SPEARFISH      CLOUDY    57  54  88 SE6       30.19F
WINNER         FAIR      58  53  84 S3        30.18S
$$

SDZ004>011-016>023-039-040-070900-
NORTHEAST SOUTH DAKOTA

CITY           SKY/WX    TMP DP  RH WIND       PRES   REMARKS
ABERDEEN       CLEAR     53  51  93 N5        30.19R
WATERTOWN      CLEAR     47  45  93 N5        30.17S
BROOKINGS      CLEAR     52  46  82 N7        30.17S
SISSETON         N/A     48  45  89 NW6       30.17R
$$

SDZ017-020-022-023-036>040-048>070-070900-
SOUTHEAST SOUTH DAKOTA

CITY           SKY/WX    TMP DP  RH WIND       PRES   REMARKS
SIOUX FALLS    CLEAR     54  50  86 CALM      30.15S
HURON          CLEAR     55  52  89 CALM      30.16S
CHAMBERLAIN    CLEAR     56  55  94 CALM      30.17F
MITCHELL       PTCLDY    58  55  90 CALM      30.17R
YANKTON        CLEAR     57  52  82 CALM      30.15R
$$

ABBREVIATIONS USED IN REMARKS
   TC - TEMPERATURE IN CELSIUS
  WCI - WIND CHILL INDEX
   HX - HEAT INDEX
  VSB - VISIBILITY




USA.gov is the U.S. government's official web portal to all federal, state and local government web resources and services.